Regional Weather Roundup
Issued by NWS

Home | Current Version | Previous Version | Text Only | Print | Product List | Glossary On
Versions: 1 2 3 4 5 6 7 8 9 10 11 12 13 14 15 16 17 18 19 20 21 22 23 24 25 26 27 28
000
ASUS44 KLIX 251413
RWRLA
LOUISIANA WEATHER ROUNDUP
NATIONAL WEATHER SERVICE NEW ORLEANS LA
900 AM CDT THU MAY 25 2017

NOTE: "FAIR" INDICATES FEW OR NO CLOUDS BELOW 12,000 FEET WITH NO
      SIGNIFICANT WEATHER AND/OR OBSTRUCTIONS TO VISIBILITY.
      SKY/WX - SKY CONDITION AND SIGNIFICANT WEATHER.
      TMP - AIR TEMPERATURE.    DP   - DEWPOINT TEMPERATURE.
      RH  - RELATIVE HUMIDITY.  PRES - PRESSURE.
      HX  - HEAT INDEX.         WCI  - WIND CHILL INDEX.

*  THESE STATIONS ARE NOT NWS OR FAA STATIONS AND ARE NOT UNDER
   NWS QUALITY CONTROL.

LAZ040-048-061>063-065-066-069-251500-
SOUTHEAST LOUISIANA

CITY           SKY/WX    TMP DP  RH WIND       PRES   REMARKS
N.O. INTL ARPT MOSUNNY   71  53  52 VRB3      29.89R
N.O. LAKEFRONT SUNNY     72  53  51 W6        29.89R
N.O. DOWNTOWN*   N/A     73  48  41 W3          N/A
RESERVE*       FAIR      72  47  41 CALM      29.89R
SLIDELL        SUNNY     71  52  50 N3        29.88R
BATON ROUGE    SUNNY     70  55  59 CALM      29.89R
BOOTHVILLE     SUNNY     72  55  55 W5        29.90R
BELLE CHASSE   MOSUNNY   71  55  56 VRB3      29.89R
BOGALUSA*      FAIR      68  55  63 CALM      29.90R
GALLIANO*      SUNNY     72  52  50 CALM      29.89R
NEW ROADS*     FAIR      68  56  65 CALM      29.90R
GONZALES*      FAIR      70  53  54 CALM      29.88S
HAMMOND*       SUNNY     70  52  52 W5        29.90R
HOUMA*         NOT AVBL
PORT FOURCHON* SUNNY     75  54  46 CALM      29.89R

$$

LAZ041-044-053-054-251500-
SOUTHWEST LOUISIANA

CITY           SKY/WX    TMP DP  RH WIND       PRES   REMARKS
LAKE CHARLES   SUNNY     75  64  68 SE7       29.85R
LAFAYETTE      SUNNY     70  56  61 E3        29.88R
PATTERSON      SUNNY     72  58  61 CALM      29.89R
SALT POINT       N/A     74  61  63 VRB3      29.87R
NEW IBERIA     SUNNY     73  54  51 SE7       29.89R
CHENAULT AIRPK SUNNY     73  64  73 CALM      29.86R

$$

LAZ027-028-251500-
CENTRAL LOUISIANA

CITY           SKY/WX    TMP DP  RH WIND       PRES   REMARKS
FORT POLK      SUNNY     68  54  60 SE5       29.85S
ALEXANDRIA INT SUNNY     67  54  63 S5        29.86R
ALEXANDRIA     SUNNY     68  58  70 VRB3      29.88R

$$

LAZ001-002-251500-
NORTHWEST LOUISIANA

CITY           SKY/WX    TMP DP  RH WIND       PRES   REMARKS
SHREVEPORT     SUNNY     68  54  60 S9        29.83S
BARKSDALE AFB  SUNNY     67  52  59 S9        29.84S
DTN SHREVEPORT SUNNY     68  53  58 S10       29.84S

$$

LAZ014-016-251500-
NORTHEAST LOUISIANA

CITY           SKY/WX    TMP DP  RH WIND       PRES   REMARKS
MONROE         SUNNY     66  53  63 SW6       29.88R
TALLULAH       SUNNY     64  56  75 VRB3      29.88R

$$





USA.gov is the U.S. government's official web portal to all federal, state and local government web resources and services.